STARLINK-3787 (52277 NORAD) Tracking and Keplerian Element Data

This shows tracking and keplerian element data for the satellite.

Feedback or suggestion? Click here.




ElementValue
Catalog52277
NameSTARLINK-3787
Epoch Orbit130
Epoch Day167.08334491
Epoch Year2022
RAAN106.8208
Inclination53.2173
Eccentricity0.0001841
Argument of Perigee40.509
Mean Anonmoly92.3492
Mean Motion15.26921806
Decay Rate-0.00726042
L11 52277U 22041S 22167.08334491 -.00726042 00000+0 -29055-1 0 9996
L22 52277 53.2173 106.8208 0001841 40.5090 92.3492 15.26921806 1306

Live tracking and technical data element details for STARLINK-3787 (NORAD 52277). STARLINK-3787 can be tracked NOW for your location showing map with azimuth and elevation plus other details from your city location.

Track the satellite on the map from your city or location and see movement details for azimuth, elevation, latitude, longitude, range, height, and movement on the map or in text.







IsCatalogInMostPopularTable: catalog: 52277, numindb: 1
Update: records affected: 1



GetName: 52277 STARLINK-3787

Hit Count: updated at: Mon, 27 Jun 2022 05:11:28 GMT